Time,TemperatureF,DewpointF,PressureIn,WindDirection,WindDirectionDegrees,WindSpeedMPH,WindSpeedGustMPH,Humidity,HourlyPrecipIn,Conditions,Clouds,dailyrainin,SoftwareType,DateUTC
2013-04-23 00:00:00,38.1,25.9,30.00,ENE,65,6.3,6.3,61,0.00,,---,0.00,VWS V14.01,2013-04-23 04:00:00,
2013-04-23 00:01:00,38.1,25.9,30.00,ENE,65,6.3,6.3,61,0.00,,---,0.00,VWS V14.01,2013-04-23 04:01:00,
2013-04-23 00:06:00,38.1,25.9,30.00,ENE,66,0.0,0.0,61,0.00,,---,0.00,VWS V14.01,2013-04-23 04:06:00,
2013-04-23 00:11:00,38.1,25.9,30.00,NNE,23,7.2,9.8,61,0.00,,---,0.00,VWS V14.01,2013-04-23 04:11:00,
2013-04-23 00:16:00,38.3,26.0,30.00,NE,34,0.0,0.0,61,0.00,,---,0.00,VWS V14.01,2013-04-23 04:16:00,
2013-04-23 00:21:00,38.3,26.0,30.00,ENE,68,10.7,10.7,61,0.00,,---,0.00,VWS V14.01,2013-04-23 04:21:00,
2013-04-23 00:26:00,38.3,26.0,30.00,ENE,60,0.0,0.0,61,0.00,,---,0.00,VWS V14.01,2013-04-23 04:26:00,
2013-04-23 00:31:00,38.1,25.9,29.97,NNE,18,9.8,9.8,61,0.00,,---,0.00,VWS V14.01,2013-04-23 04:31:00,
2013-04-23 00:36:00,38.1,25.9,29.97,NNE,28,6.3,6.3,61,0.00,,---,0.00,VWS V14.01,2013-04-23 04:36:00,
2013-04-23 00:41:00,37.9,26.1,29.97,ENE,60,4.5,7.2,62,0.00,,---,0.00,VWS V14.01,2013-04-23 04:41:00,
2013-04-23 00:46:00,37.8,25.9,29.97,NE,46,9.8,9.8,62,0.00,,---,0.00,VWS V14.01,2013-04-23 04:46:00,
2013-04-23 00:51:00,37.6,25.8,29.97,ENE,64,8.1,8.1,62,0.00,,---,0.00,VWS V14.01,2013-04-23 04:51:00,
2013-04-23 00:56:00,37.6,26.1,29.97,NNE,22,0.0,0.0,63,0.00,,---,0.00,VWS V14.01,2013-04-23 04:56:00,
2013-04-23 01:01:00,37.6,26.1,29.97,NE,41,6.3,6.3,63,0.00,,---,0.00,VWS V14.01,2013-04-23 05:01:00,
2013-04-23 01:06:00,37.6,26.1,29.97,ENE,69,8.1,8.1,63,0.00,,---,0.00,VWS V14.01,2013-04-23 05:06:00,
2013-04-23 01:11:00,37.6,26.1,29.97,NNE,25,0.0,6.3,63,0.00,,---,0.00,VWS V14.01,2013-04-23 05:11:00,
2013-04-23 01:16:00,37.6,26.1,29.97,ENE,58,11.6,12.5,63,0.00,,---,0.00,VWS V14.01,2013-04-23 05:16:00,
2013-04-23 01:21:00,37.8,26.3,29.97,NE,37,6.3,7.2,63,0.00,,---,0.00,VWS V14.01,2013-04-23 05:21:00,
2013-04-23 01:26:00,37.9,26.5,29.97,NE,36,8.1,8.1,63,0.00,,---,0.00,VWS V14.01,2013-04-23 05:26:00,
2013-04-23 01:31:00,38.1,26.6,29.94,NNE,26,5.4,8.1,63,0.00,,---,0.00,VWS V14.01,2013-04-23 05:31:00,
2013-04-23 01:36:00,38.1,26.3,29.94,NE,39,5.4,7.2,62,0.00,,---,0.00,VWS V14.01,2013-04-23 05:36:00,
2013-04-23 01:41:00,38.3,26.4,29.94,NE,43,0.0,0.0,62,0.00,,---,0.00,VWS V14.01,2013-04-23 05:41:00,
2013-04-23 01:46:00,38.3,26.4,29.94,ENE,73,8.1,8.1,62,0.00,,---,0.00,VWS V14.01,2013-04-23 05:46:00,
2013-04-23 01:51:00,38.5,26.6,29.94,NNE,21,4.5,8.1,62,0.00,,---,0.00,VWS V14.01,2013-04-23 05:51:00,
2013-04-23 01:56:00,38.5,26.6,29.94,ENE,66,7.2,9.8,62,0.00,,---,0.00,VWS V14.01,2013-04-23 05:56:00,
2013-04-23 02:01:00,38.5,26.6,29.94,NNE,28,4.5,5.4,62,0.00,,---,0.00,VWS V14.01,2013-04-23 06:01:00,
2013-04-23 02:06:00,38.3,26.4,29.94,NNE,20,9.8,11.6,62,0.00,,---,0.00,VWS V14.01,2013-04-23 06:06:00,
2013-04-23 02:11:00,38.3,26.4,29.94,NE,44,5.4,10.7,62,0.00,,---,0.00,VWS V14.01,2013-04-23 06:11:00,
2013-04-23 02:16:00,38.3,26.4,29.94,NE,34,6.3,8.1,62,0.00,,---,0.00,VWS V14.01,2013-04-23 06:16:00,
2013-04-23 02:21:00,38.5,26.6,29.94,NE,43,5.4,5.4,62,0.00,,---,0.00,VWS V14.01,2013-04-23 06:21:00,
2013-04-23 02:26:00,38.5,26.6,29.94,North,0,12.5,12.5,62,0.00,,---,0.00,VWS V14.01,2013-04-23 06:26:00,
2013-04-23 02:31:00,38.5,26.6,29.91,ENE,62,4.5,4.5,62,0.00,,---,0.00,VWS V14.01,2013-04-23 06:31:00,
2013-04-23 02:36:00,38.5,26.6,29.91,ENE,72,11.6,11.6,62,0.00,,---,0.00,VWS V14.01,2013-04-23 06:36:00,
2013-04-23 02:41:00,38.5,26.6,29.91,ENE,60,7.2,7.2,62,0.00,,---,0.00,VWS V14.01,2013-04-23 06:41:00,
2013-04-23 02:46:00,38.5,26.6,29.91,NNE,15,6.3,6.3,62,0.00,,---,0.00,VWS V14.01,2013-04-23 06:46:00,
2013-04-23 02:51:00,38.7,26.8,29.91,ENE,67,9.8,9.8,62,0.00,,---,0.00,VWS V14.01,2013-04-23 06:51:00,
2013-04-23 02:56:00,38.7,26.8,29.91,East,90,12.5,12.5,62,0.00,,---,0.00,VWS V14.01,2013-04-23 06:56:00,
2013-04-23 03:01:00,38.7,26.8,29.91,ENE,77,9.8,10.7,62,0.00,,---,0.00,VWS V14.01,2013-04-23 07:01:00,
2013-04-23 03:06:00,38.7,26.8,29.91,NE,54,10.7,11.6,62,0.00,,---,0.00,VWS V14.01,2013-04-23 07:06:00,
2013-04-23 03:11:00,38.7,26.8,29.91,NE,38,5.4,8.1,62,0.00,,---,0.00,VWS V14.01,2013-04-23 07:11:00,
2013-04-23 03:16:00,38.7,26.8,29.88,NE,45,8.1,8.1,62,0.00,,---,0.00,VWS V14.01,2013-04-23 07:16:00,
2013-04-23 03:21:00,38.7,26.8,29.88,North,3,6.3,9.8,62,0.00,,---,0.00,VWS V14.01,2013-04-23 07:21:00,
2013-04-23 03:26:00,38.7,26.8,29.88,North,7,5.4,6.3,62,0.00,,---,0.00,VWS V14.01,2013-04-23 07:26:00,
2013-04-23 03:31:00,38.8,27.3,29.88,ENE,62,0.0,11.6,63,0.00,,---,0.00,VWS V14.01,2013-04-23 07:31:00,
2013-04-23 03:36:00,38.8,27.3,29.88,NE,50,8.1,8.1,63,0.00,,---,0.00,VWS V14.01,2013-04-23 07:36:00,
2013-04-23 03:41:00,38.8,27.3,29.88,ENE,57,11.6,11.6,63,0.00,,---,0.00,VWS V14.01,2013-04-23 07:41:00,
2013-04-23 03:46:00,38.8,27.3,29.88,NNE,21,0.0,0.0,63,0.00,,---,0.00,VWS V14.01,2013-04-23 07:46:00,
2013-04-23 03:51:00,38.8,27.3,29.88,NE,45,12.5,12.5,63,0.00,,---,0.00,VWS V14.01,2013-04-23 07:51:00,
2013-04-23 03:56:00,38.8,27.3,29.88,NNE,26,5.4,6.3,63,0.00,,---,0.00,VWS V14.01,2013-04-23 07:56:00,
2013-04-23 04:01:00,38.8,27.3,29.88,NNE,23,8.1,8.1,63,0.00,,---,0.00,VWS V14.01,2013-04-23 08:01:00,
2013-04-23 04:06:00,38.8,27.3,29.88,NE,45,12.5,12.5,63,0.00,,---,0.00,VWS V14.01,2013-04-23 08:06:00,
2013-04-23 04:11:00,38.8,27.7,29.88,NNE,29,5.4,7.2,64,0.00,,---,0.00,VWS V14.01,2013-04-23 08:11:00,
2013-04-23 04:16:00,38.8,27.7,29.88,NNE,25,0.0,0.0,64,0.00,,---,0.00,VWS V14.01,2013-04-23 08:16:00,
2013-04-23 04:21:00,38.8,27.7,29.88,NNE,28,11.6,11.6,64,0.00,,---,0.00,VWS V14.01,2013-04-23 08:21:00,
2013-04-23 04:25:00,38.8,28.1,29.88,NE,42,6.3,21.0,65,0.00,,---,0.00,VWS V14.01,2013-04-23 08:25:00,
2013-04-23 04:30:00,38.8,28.1,29.88,NE,56,10.7,10.7,65,0.00,,---,0.00,VWS V14.01,2013-04-23 08:30:00,
2013-04-23 04:35:00,38.8,28.1,29.88,NNE,31,10.7,10.7,65,0.00,,---,0.00,VWS V14.01,2013-04-23 08:35:00,
2013-04-23 04:40:00,38.8,28.5,29.88,East,79,9.8,9.8,66,0.00,,---,0.00,VWS V14.01,2013-04-23 08:40:00,
2013-04-23 04:45:00,38.8,28.1,29.88,NNE,21,6.3,8.1,65,0.00,,---,0.00,VWS V14.01,2013-04-23 08:45:00,
2013-04-23 04:50:00,38.8,28.5,29.88,NNE,30,7.2,9.8,66,0.00,,---,0.00,VWS V14.01,2013-04-23 08:50:00,
2013-04-23 04:55:00,38.8,28.8,29.88,NE,56,10.7,11.6,67,0.00,,---,0.00,VWS V14.01,2013-04-23 08:55:00,
2013-04-23 05:00:00,38.8,28.8,29.88,ENE,65,12.5,12.5,67,0.00,,---,0.00,VWS V14.01,2013-04-23 09:00:00,
2013-04-23 05:05:00,38.8,28.8,29.88,NE,37,11.6,11.6,67,0.00,,---,0.00,VWS V14.01,2013-04-23 09:05:00,
2013-04-23 05:10:00,38.8,28.8,29.88,East,84,7.2,7.2,67,0.00,,---,0.00,VWS V14.01,2013-04-23 09:10:00,
2013-04-23 05:15:00,38.8,28.8,29.85,ENE,68,9.8,9.8,67,0.00,,---,0.00,VWS V14.01,2013-04-23 09:15:00,
2013-04-23 05:20:00,38.8,29.2,29.85,East,90,7.2,7.2,68,0.00,,---,0.00,VWS V14.01,2013-04-23 09:20:00,
2013-04-23 05:25:00,38.8,29.2,29.85,NE,56,10.7,10.7,68,0.00,,---,0.00,VWS V14.01,2013-04-23 09:25:00,
2013-04-23 05:30:00,39.0,29.7,29.85,East,79,6.3,8.1,69,0.00,,---,0.00,VWS V14.01,2013-04-23 09:30:00,
2013-04-23 05:35:00,39.0,29.7,29.85,NNE,23,10.7,10.7,69,0.00,,---,0.00,VWS V14.01,2013-04-23 09:35:00,
2013-04-23 05:40:00,39.0,29.7,29.85,NNE,21,11.6,11.6,69,0.00,,---,0.00,VWS V14.01,2013-04-23 09:40:00,
2013-04-23 05:45:00,39.0,29.7,29.85,NE,48,10.7,10.7,69,0.00,,---,0.00,VWS V14.01,2013-04-23 09:45:00,
2013-04-23 05:50:00,39.0,30.1,29.85,NNE,13,6.3,7.2,70,0.00,,---,0.00,VWS V14.01,2013-04-23 09:50:00,
2013-04-23 05:55:00,39.0,30.1,29.85,NNE,15,0.0,9.8,70,0.00,,---,0.00,VWS V14.01,2013-04-23 09:55:00,
2013-04-23 06:00:00,39.0,30.1,29.85,NNE,27,0.0,0.0,70,0.00,,---,0.00,VWS V14.01,2013-04-23 10:00:00,
2013-04-23 06:05:00,39.0,30.1,29.85,NE,50,5.4,5.4,70,0.00,,---,0.00,VWS V14.01,2013-04-23 10:05:00,
2013-04-23 06:10:00,39.2,30.2,29.85,NE,41,11.6,11.6,70,0.00,,---,0.00,VWS V14.01,2013-04-23 10:10:00,
2013-04-23 06:15:00,39.2,30.2,29.85,ENE,76,9.8,9.8,70,0.00,,---,0.00,VWS V14.01,2013-04-23 10:15:00,
2013-04-23 06:20:00,39.2,30.2,29.85,NNE,29,6.3,7.2,70,0.00,,---,0.00,VWS V14.01,2013-04-23 10:20:00,
2013-04-23 06:25:00,39.2,30.6,29.85,NNE,23,8.1,8.1,71,0.00,,---,0.00,VWS V14.01,2013-04-23 10:25:00,
2013-04-23 06:30:00,39.2,30.6,29.85,NE,52,5.4,5.4,71,0.00,,---,0.00,VWS V14.01,2013-04-23 10:30:00,
2013-04-23 06:35:00,39.4,30.8,29.85,ENE,60,11.6,11.6,71,0.00,,---,0.00,VWS V14.01,2013-04-23 10:35:00,
2013-04-23 06:40:00,39.4,31.1,29.85,North,357,0.0,10.7,72,0.00,,---,0.00,VWS V14.01,2013-04-23 10:40:00,
2013-04-23 06:45:00,39.4,31.1,29.85,NE,47,5.4,6.3,72,0.00,,---,0.00,VWS V14.01,2013-04-23 10:45:00,
2013-04-23 06:50:00,39.4,31.1,29.85,NE,36,5.4,5.4,72,0.00,,---,0.00,VWS V14.01,2013-04-23 10:50:00,
2013-04-23 06:55:00,39.4,31.5,29.85,NE,52,8.1,8.1,73,0.00,,---,0.00,VWS V14.01,2013-04-23 10:55:00,
2013-04-23 07:00:00,39.4,31.8,29.85,ENE,59,12.5,12.5,74,0.00,,---,0.00,VWS V14.01,2013-04-23 11:00:00,
2013-04-23 07:05:00,39.6,32.3,29.85,North,353,15.2,15.2,75,0.00,,---,0.00,VWS V14.01,2013-04-23 11:05:00,
2013-04-23 07:10:00,39.6,32.0,29.85,NNE,22,7.2,7.2,74,0.00,,---,0.00,VWS V14.01,2013-04-23 11:10:00,
2013-04-23 07:15:00,39.6,32.3,29.85,NE,44,7.2,8.9,75,0.00,,---,0.00,VWS V14.01,2013-04-23 11:15:00,
2013-04-23 07:20:00,39.6,32.3,29.85,NE,50,9.8,15.2,75,0.00,,---,0.00,VWS V14.01,2013-04-23 11:20:00,
2013-04-23 07:25:00,39.7,32.5,29.85,East,86,10.7,10.7,75,0.00,,---,0.00,VWS V14.01,2013-04-23 11:25:00,
2013-04-23 07:30:00,39.7,33.1,29.85,ENE,59,4.5,8.1,77,0.00,,---,0.00,VWS V14.01,2013-04-23 11:30:00,
2013-04-23 07:35:00,39.7,33.1,29.85,North,8,12.5,19.2,77,0.00,,---,0.00,VWS V14.01,2013-04-23 11:35:00,
2013-04-23 07:40:00,39.7,33.1,29.85,East,79,10.7,11.6,77,0.00,,---,0.00,VWS V14.01,2013-04-23 11:40:00,
2013-04-23 07:45:00,39.9,34.0,29.85,NE,48,8.1,16.1,79,0.00,,---,0.00,VWS V14.01,2013-04-23 11:45:00,
2013-04-23 07:50:00,39.9,34.3,29.85,NNE,27,10.7,10.7,80,0.00,,---,0.00,VWS V14.01,2013-04-23 11:50:00,
2013-04-23 07:55:00,40.1,34.8,29.85,NNE,14,6.3,6.3,81,0.00,,---,0.00,VWS V14.01,2013-04-23 11:55:00,
2013-04-23 08:00:00,40.1,35.1,29.83,East,86,12.5,15.2,82,0.00,,---,0.00,VWS V14.01,2013-04-23 12:00:00,
2013-04-23 08:05:00,40.1,35.1,29.83,ESE,103,7.2,7.2,82,0.00,,---,0.00,VWS V14.01,2013-04-23 12:05:00,
2013-04-23 08:10:00,40.3,35.5,29.83,NNE,31,6.3,10.7,83,0.00,,---,0.00,VWS V14.01,2013-04-23 12:10:00,
2013-04-23 08:15:00,40.5,35.4,29.83,NNE,15,6.3,6.3,82,0.00,,---,0.00,VWS V14.01,2013-04-23 12:15:00,
2013-04-23 08:20:00,40.5,35.4,29.83,NE,44,7.2,9.8,82,0.00,,---,0.00,VWS V14.01,2013-04-23 12:20:00,
2013-04-23 08:25:00,40.5,35.4,29.83,NNE,19,16.6,16.6,82,0.00,,---,0.00,VWS V14.01,2013-04-23 12:25:00,
2013-04-23 08:30:00,40.5,35.7,29.83,NE,52,11.6,11.6,83,0.00,,---,0.00,VWS V14.01,2013-04-23 12:30:00,
2013-04-23 08:35:00,40.6,36.2,29.83,North,11,5.4,5.4,84,0.00,,---,0.00,VWS V14.01,2013-04-23 12:35:00,
2013-04-23 08:40:00,40.6,36.5,29.83,NE,43,8.1,10.7,85,0.00,,---,0.00,VWS V14.01,2013-04-23 12:40:00,
2013-04-23 08:45:00,40.6,37.4,29.83,NE,40,10.7,11.6,88,0.00,,---,0.00,VWS V14.01,2013-04-23 12:45:00,
2013-04-23 08:50:00,40.6,37.7,29.83,NNE,15,5.4,16.1,89,0.00,,---,0.00,VWS V14.01,2013-04-23 12:50:00,
2013-04-23 08:55:00,40.6,37.9,29.83,NNE,28,10.7,10.7,90,0.00,,---,0.00,VWS V14.01,2013-04-23 12:55:00,
2013-04-23 09:00:00,40.6,37.9,29.83,ENE,72,8.9,8.9,90,0.00,,---,0.00,VWS V14.01,2013-04-23 13:00:00,
2013-04-23 09:05:00,40.8,39.0,29.83,North,353,7.2,7.2,93,0.00,,---,0.00,VWS V14.01,2013-04-23 13:05:00,
2013-04-23 09:10:00,41.0,39.1,29.83,North,9,12.5,12.5,93,0.00,,---,0.00,VWS V14.01,2013-04-23 13:10:00,
2013-04-23 09:15:00,41.0,39.1,29.83,NE,36,6.3,11.6,93,0.00,,---,0.00,VWS V14.01,2013-04-23 13:15:00,
2013-04-23 09:20:00,41.0,39.1,29.83,NNE,12,12.5,16.1,93,0.00,,---,0.00,VWS V14.01,2013-04-23 13:20:00,
2013-04-23 09:25:00,41.2,38.8,29.83,NE,52,6.3,6.3,91,0.00,,---,0.00,VWS V14.01,2013-04-23 13:25:00,
2013-04-23 09:30:00,41.2,38.2,29.83,East,89,8.1,8.1,89,0.00,,---,0.00,VWS V14.01,2013-04-23 13:30:00,
2013-04-23 09:35:00,41.4,38.4,29.83,NE,35,7.2,10.7,89,0.00,,---,0.00,VWS V14.01,2013-04-23 13:35:00,
2013-04-23 09:40:00,41.5,38.3,29.83,NE,35,5.4,10.7,88,0.00,,---,0.00,VWS V14.01,2013-04-23 13:40:00,
2013-04-23 09:45:00,41.5,38.3,29.83,NE,37,8.1,8.1,88,0.00,,---,0.00,VWS V14.01,2013-04-23 13:45:00,
2013-04-23 09:50:00,41.7,38.1,29.83,East,85,15.2,15.2,87,0.00,,---,0.00,VWS V14.01,2013-04-23 13:50:00,
2013-04-23 09:55:00,41.7,38.1,29.83,NE,50,0.0,0.0,87,0.00,,---,0.00,VWS V14.01,2013-04-23 13:55:00,
2013-04-23 10:00:00,41.9,38.3,29.83,NNE,33,16.1,16.1,87,0.00,,---,0.00,VWS V14.01,2013-04-23 14:00:00,
2013-04-23 10:05:00,41.9,38.3,29.83,NNE,30,0.0,0.0,87,0.00,,---,0.00,VWS V14.01,2013-04-23 14:05:00,
2013-04-23 10:10:00,42.1,38.2,29.83,ENE,76,10.7,10.7,86,0.00,,---,0.00,VWS V14.01,2013-04-23 14:10:00,
2013-04-23 10:15:00,42.1,38.5,29.83,ENE,74,9.8,10.7,87,0.00,,---,0.00,VWS V14.01,2013-04-23 14:15:00,
2013-04-23 10:20:00,42.1,38.8,29.83,ENE,61,7.2,7.2,88,0.00,,---,0.00,VWS V14.01,2013-04-23 14:20:00,
2013-04-23 10:25:00,42.1,38.8,29.83,North,0,5.4,8.1,88,0.00,,---,0.00,VWS V14.01,2013-04-23 14:25:00,
2013-04-23 10:30:00,42.3,39.0,29.83,NE,54,12.5,12.5,88,0.00,,---,0.00,VWS V14.01,2013-04-23 14:30:00,
2013-04-23 10:35:00,42.4,38.8,29.80,East,81,8.1,8.1,87,0.00,,---,0.00,VWS V14.01,2013-04-23 14:35:00,
2013-04-23 10:40:00,42.4,38.8,29.80,East,96,10.7,10.7,87,0.00,,---,0.00,VWS V14.01,2013-04-23 14:40:00,
2013-04-23 10:45:00,42.4,38.8,29.80,ENE,70,10.7,10.7,87,0.00,,---,0.00,VWS V14.01,2013-04-23 14:45:00,
2013-04-23 10:50:00,42.6,39.0,29.80,NE,38,10.7,10.7,87,0.00,,---,0.00,VWS V14.01,2013-04-23 14:50:00,
2013-04-23 10:55:00,42.6,38.7,29.80,NE,36,6.3,6.3,86,0.00,,---,0.00,VWS V14.01,2013-04-23 14:55:00,
2013-04-23 11:00:00,42.8,38.3,29.80,NE,46,5.4,5.4,84,0.00,,---,0.00,VWS V14.01,2013-04-23 15:00:00,
2013-04-23 11:05:00,42.8,38.3,29.80,NE,36,6.3,8.1,84,0.00,,---,0.00,VWS V14.01,2013-04-23 15:05:00,
2013-04-23 11:10:00,43.0,37.9,29.80,NE,50,10.7,15.2,82,0.00,,---,0.00,VWS V14.01,2013-04-23 15:10:00,
2013-04-23 11:15:00,43.0,37.2,29.80,NE,37,8.1,16.1,80,0.00,,---,0.00,VWS V14.01,2013-04-23 15:15:00,
2013-04-23 11:20:00,43.0,37.2,29.80,East,98,10.7,10.7,80,0.00,,---,0.00,VWS V14.01,2013-04-23 15:20:00,
2013-04-23 11:25:00,43.0,37.2,29.80,East,82,7.2,11.6,80,0.00,,---,0.00,VWS V14.01,2013-04-23 15:25:00,
2013-04-23 11:30:00,43.0,37.2,29.80,NNE,27,11.6,12.5,80,0.00,,---,0.00,VWS V14.01,2013-04-23 15:30:00,
2013-04-23 11:35:00,43.3,37.6,29.80,North,4,20.1,20.1,80,0.00,,---,0.00,VWS V14.01,2013-04-23 15:35:00,
2013-04-23 11:40:00,43.5,37.8,29.80,NNE,22,15.2,15.2,80,0.00,,---,0.00,VWS V14.01,2013-04-23 15:40:00,
2013-04-23 11:45:00,43.9,37.5,29.77,NE,35,7.2,7.2,78,0.00,,---,0.00,VWS V14.01,2013-04-23 15:45:00,
2013-04-23 11:50:00,44.1,37.0,29.77,NNE,20,16.1,16.1,76,0.00,,---,0.00,VWS V14.01,2013-04-23 15:50:00,
2013-04-23 11:55:00,44.4,37.0,29.77,North,6,10.7,10.7,75,0.00,,---,0.00,VWS V14.01,2013-04-23 15:55:00,
2013-04-23 12:00:00,44.4,36.3,29.77,ENE,67,16.6,16.6,73,0.00,,---,0.00,VWS V14.01,2013-04-23 16:00:00,
2013-04-23 12:05:00,44.2,36.2,29.77,ENE,67,5.4,7.2,73,0.00,,---,0.00,VWS V14.01,2013-04-23 16:05:00,
2013-04-23 12:10:00,44.2,36.5,29.77,ESE,109,12.5,12.5,74,0.00,,---,0.00,VWS V14.01,2013-04-23 16:10:00,
2013-04-23 12:15:00,44.2,36.5,29.77,NNE,28,6.3,7.2,74,0.00,,---,0.00,VWS V14.01,2013-04-23 16:15:00,
2013-04-23 12:20:00,44.4,36.7,29.77,NNE,28,9.8,12.5,74,0.00,,---,0.00,VWS V14.01,2013-04-23 16:20:00,
2013-04-23 12:25:00,44.8,36.3,29.77,NNW,336,6.3,6.3,72,0.00,,---,0.00,VWS V14.01,2013-04-23 16:25:00,
2013-04-23 12:30:00,45.0,36.5,29.77,NNE,13,15.2,15.2,72,0.00,,---,0.00,VWS V14.01,2013-04-23 16:30:00,
2013-04-23 12:35:00,44.8,36.0,29.77,ENE,71,12.5,16.1,71,0.00,,---,0.00,VWS V14.01,2013-04-23 16:35:00,
2013-04-23 12:40:00,44.8,36.3,29.77,ENE,73,10.7,10.7,72,0.00,,---,0.00,VWS V14.01,2013-04-23 16:40:00,
2013-04-23 12:45:00,44.8,36.3,29.74,NE,39,10.7,10.7,72,0.00,,---,0.00,VWS V14.01,2013-04-23 16:45:00,
2013-04-23 12:50:00,44.8,36.3,29.74,NE,47,10.7,10.7,72,0.00,,---,0.00,VWS V14.01,2013-04-23 16:50:00,
2013-04-23 12:55:00,44.8,36.3,29.74,ENE,71,6.3,14.3,72,0.00,,---,0.00,VWS V14.01,2013-04-23 16:55:00,
2013-04-23 13:00:00,44.8,36.3,29.74,ENE,71,6.3,8.1,72,0.00,,---,0.00,VWS V14.01,2013-04-23 17:00:00,
2013-04-23 13:05:00,45.0,36.5,29.74,ENE,58,10.7,10.7,72,0.00,,---,0.00,VWS V14.01,2013-04-23 17:05:00,
2013-04-23 13:10:00,44.8,36.3,29.74,NE,34,11.6,16.6,72,0.00,,---,0.00,VWS V14.01,2013-04-23 17:10:00,
2013-04-23 13:15:00,44.6,36.2,29.74,ENE,63,8.1,8.1,72,0.00,,---,0.00,VWS V14.01,2013-04-23 17:15:00,
2013-04-23 13:20:00,44.6,36.5,29.74,SE,130,5.4,5.4,73,0.00,,---,0.00,VWS V14.01,2013-04-23 17:20:00,
2013-04-23 13:25:00,44.6,36.5,29.74,NNE,33,6.3,11.6,73,0.00,,---,0.00,VWS V14.01,2013-04-23 17:25:00,
2013-04-23 13:30:00,44.6,36.5,29.71,NNE,30,12.5,12.5,73,0.00,,---,0.00,VWS V14.01,2013-04-23 17:30:00,
2013-04-23 13:35:00,42.4,34.8,29.71,NNE,31,6.3,6.3,74,0.00,,---,0.00,VWS V14.01,2013-04-23 17:35:00,
2013-04-23 13:40:00,44.4,37.0,29.71,NE,41,16.1,16.1,75,0.00,,---,0.00,VWS V14.01,2013-04-23 17:40:00,
2013-04-23 13:45:00,44.4,37.0,29.71,NNE,14,8.1,8.1,75,0.00,,---,0.00,VWS V14.01,2013-04-23 17:45:00,
2013-04-23 13:50:00,44.6,37.2,29.71,NNE,14,8.1,12.5,75,0.00,,---,0.00,VWS V14.01,2013-04-23 17:50:00,
2013-04-23 13:55:00,44.6,37.2,29.71,ENE,67,11.6,11.6,75,0.00,,---,0.00,VWS V14.01,2013-04-23 17:55:00,
2013-04-23 14:00:00,44.6,37.2,29.68,NNE,32,12.5,12.5,75,0.00,,---,0.00,VWS V14.01,2013-04-23 18:00:00,
2013-04-23 14:05:00,44.4,37.0,29.68,NE,44,16.6,24.6,75,0.00,,---,0.00,VWS V14.01,2013-04-23 18:05:00,
2013-04-23 14:10:00,44.4,37.3,29.68,NNW,346,7.2,7.2,76,0.00,,---,0.00,VWS V14.01,2013-04-23 18:10:00,
2013-04-23 14:15:00,44.6,37.5,29.68,NE,50,11.6,11.6,76,0.00,,---,0.00,VWS V14.01,2013-04-23 18:15:00,
2013-04-23 14:20:00,45.0,37.2,29.68,ENE,60,9.8,9.8,74,0.00,,---,0.00,VWS V14.01,2013-04-23 18:20:00,
2013-04-23 14:25:00,45.1,37.4,29.68,ENE,58,7.2,7.2,74,0.00,,---,0.00,VWS V14.01,2013-04-23 18:25:00,
2013-04-23 14:30:00,45.1,36.7,29.68,North,11,10.7,12.5,72,0.00,,---,0.00,VWS V14.01,2013-04-23 18:30:00,
2013-04-23 14:35:00,45.3,37.2,29.68,NE,47,20.1,20.1,73,0.00,,---,0.00,VWS V14.01,2013-04-23 18:35:00,
2013-04-23 14:40:00,45.5,37.0,29.68,North,10,15.2,15.2,72,0.00,,---,0.00,VWS V14.01,2013-04-23 18:40:00,
2013-04-23 14:45:00,45.5,37.0,29.68,NNE,30,16.6,16.6,72,0.00,,---,0.00,VWS V14.01,2013-04-23 18:45:00,
2013-04-23 14:50:00,45.3,36.5,29.68,NE,51,16.1,16.1,71,0.00,,---,0.00,VWS V14.01,2013-04-23 18:50:00,
2013-04-23 14:55:00,45.1,36.7,29.68,NNE,33,7.2,7.2,72,0.00,,---,0.00,VWS V14.01,2013-04-23 18:55:00,
2013-04-23 15:00:00,45.3,36.8,29.68,NE,42,16.1,20.1,72,0.00,,---,0.00,VWS V14.01,2013-04-23 19:00:00,
2013-04-23 15:05:00,45.5,37.0,29.68,NNE,25,6.3,7.2,72,0.00,,---,0.00,VWS V14.01,2013-04-23 19:05:00,
2013-04-23 15:10:00,45.3,36.5,29.65,NNW,329,10.7,10.7,71,0.00,,---,0.00,VWS V14.01,2013-04-23 19:10:00,
2013-04-23 15:15:00,45.1,36.7,29.65,NNE,27,11.6,11.6,72,0.00,,---,0.00,VWS V14.01,2013-04-23 19:15:00,
2013-04-23 15:20:00,45.0,36.5,29.65,North,353,12.5,12.5,72,0.00,,---,0.00,VWS V14.01,2013-04-23 19:20:00,
2013-04-23 15:25:00,45.0,36.8,29.65,North,0,12.5,12.5,73,0.00,,---,0.00,VWS V14.01,2013-04-23 19:25:00,
2013-04-23 15:30:00,45.1,36.7,29.65,North,350,11.6,12.5,72,0.00,,---,0.00,VWS V14.01,2013-04-23 19:30:00,
2013-04-23 15:35:00,45.1,37.0,29.65,NE,35,10.7,10.7,73,0.00,,---,0.00,VWS V14.01,2013-04-23 19:35:00,
2013-04-23 15:40:00,45.1,36.7,29.65,NE,48,17.4,17.4,72,0.00,,---,0.00,VWS V14.01,2013-04-23 19:40:00,
2013-04-23 15:45:00,45.0,36.5,29.65,NNE,32,10.7,16.6,72,0.00,,---,0.00,VWS V14.01,2013-04-23 19:45:00,
2013-04-23 15:50:00,45.0,36.8,29.65,NE,41,16.1,16.1,73,0.00,,---,0.00,VWS V14.01,2013-04-23 19:50:00,
2013-04-23 15:55:00,45.0,37.2,29.65,NE,47,14.3,14.3,74,0.00,,---,0.00,VWS V14.01,2013-04-23 19:55:00,
2013-04-23 16:00:00,44.8,37.3,29.65,North,10,18.3,18.3,75,0.00,,---,0.00,VWS V14.01,2013-04-23 20:00:00,
2013-04-23 16:05:00,44.6,37.8,29.62,NNE,12,16.6,16.6,77,0.00,,---,0.00,VWS V14.01,2013-04-23 20:05:00,
2013-04-23 16:10:00,44.6,38.5,29.62,NE,41,18.3,18.3,79,0.00,,---,0.00,VWS V14.01,2013-04-23 20:10:00,
2013-04-23 16:15:00,44.4,39.9,29.62,NNE,15,12.5,17.4,84,0.00,,---,0.00,VWS V14.01,2013-04-23 20:15:00,
2013-04-23 16:20:00,44.2,40.6,29.62,NNE,16,10.7,10.7,87,0.00,,---,0.00,VWS V14.01,2013-04-23 20:20:00,
2013-04-23 16:25:00,44.1,40.7,29.62,North,0,8.1,8.1,88,0.00,,---,0.00,VWS V14.01,2013-04-23 20:25:00,
2013-04-23 16:30:00,44.2,40.9,29.62,NNW,340,11.6,11.6,88,0.00,,---,0.00,VWS V14.01,2013-04-23 20:30:00,
2013-04-23 16:35:00,44.2,40.6,29.62,North,4,12.5,12.5,87,0.00,,---,0.00,VWS V14.01,2013-04-23 20:35:00,
2013-04-23 16:40:00,44.2,39.7,29.62,NNE,14,10.7,10.7,84,0.00,,---,0.00,VWS V14.01,2013-04-23 20:40:00,
2013-04-23 16:45:00,44.2,39.7,29.62,North,349,6.3,6.3,84,0.00,,---,0.00,VWS V14.01,2013-04-23 20:45:00,
2013-04-23 16:50:00,44.2,39.1,29.62,North,353,13.4,13.4,82,0.00,,---,0.00,VWS V14.01,2013-04-23 20:50:00,
2013-04-23 16:55:00,44.2,39.1,29.62,North,353,16.1,21.9,82,0.00,,---,0.00,VWS V14.01,2013-04-23 20:55:00,
2013-04-23 17:00:00,44.1,38.9,29.62,North,0,12.5,12.5,82,0.00,,---,0.00,VWS V14.01,2013-04-23 21:00:00,
2013-04-23 17:05:00,43.9,38.8,29.62,NE,45,17.4,17.4,82,0.00,,---,0.00,VWS V14.01,2013-04-23 21:05:00,
2013-04-23 17:10:00,43.9,39.1,29.62,NE,36,16.1,16.1,83,0.00,,---,0.00,VWS V14.01,2013-04-23 21:10:00,
2013-04-23 17:15:00,43.9,39.1,29.62,North,0,8.1,16.1,83,0.00,,---,0.00,VWS V14.01,2013-04-23 21:15:00,
2013-04-23 17:20:00,43.9,39.1,29.62,NE,48,8.1,8.1,83,0.00,,---,0.00,VWS V14.01,2013-04-23 21:20:00,
2013-04-23 17:25:00,43.7,38.6,29.62,North,5,11.6,11.6,82,0.00,,---,0.00,VWS V14.01,2013-04-23 21:25:00,
2013-04-23 17:30:00,43.7,38.9,29.62,NNE,33,17.4,17.4,83,0.00,,---,0.00,VWS V14.01,2013-04-23 21:30:00,
2013-04-23 17:35:00,43.7,39.5,29.62,NNW,338,12.5,12.5,85,0.00,,---,0.00,VWS V14.01,2013-04-23 21:35:00,
2013-04-23 17:40:00,43.5,39.3,29.62,North,11,16.1,20.1,85,0.00,,---,0.00,VWS V14.01,2013-04-23 21:40:00,
2013-04-23 17:45:00,43.5,39.3,29.59,NE,42,19.2,19.2,85,0.00,,---,0.00,VWS V14.01,2013-04-23 21:45:00,
2013-04-23 17:50:00,43.5,39.9,29.59,NNE,33,6.3,11.6,87,0.00,,---,0.00,VWS V14.01,2013-04-23 21:50:00,
2013-04-23 17:55:00,43.5,39.9,29.59,NNW,333,14.3,16.6,87,0.00,,---,0.00,VWS V14.01,2013-04-23 21:55:00,
2013-04-23 18:00:00,43.3,38.8,29.59,NE,52,20.1,20.1,84,0.00,,---,0.00,VWS V14.01,2013-04-23 22:00:00,
2013-04-23 18:05:00,43.3,38.8,29.59,North,353,17.4,17.4,84,0.00,,---,0.00,VWS V14.01,2013-04-23 22:05:00,
2013-04-23 18:10:00,43.3,38.5,29.59,North,2,11.6,11.6,83,0.00,,---,0.00,VWS V14.01,2013-04-23 22:10:00,
2013-04-23 18:15:00,43.3,38.5,29.59,North,7,8.1,9.8,83,0.00,,---,0.00,VWS V14.01,2013-04-23 22:15:00,
2013-04-23 18:20:00,43.3,38.2,29.59,NNE,25,26.4,26.4,82,0.00,,---,0.00,VWS V14.01,2013-04-23 22:20:00,
2013-04-23 18:25:00,43.3,38.2,29.59,NNE,32,8.1,8.1,82,0.00,,---,0.00,VWS V14.01,2013-04-23 22:25:00,
2013-04-23 18:30:00,43.3,38.2,29.59,ENE,63,12.5,12.5,82,0.00,,---,0.00,VWS V14.01,2013-04-23 22:30:00,
2013-04-23 18:35:00,43.3,38.2,29.59,North,357,16.1,16.6,82,0.00,,---,0.00,VWS V14.01,2013-04-23 22:35:00,
2013-04-23 18:40:00,43.3,37.6,29.59,North,6,16.6,21.9,80,0.00,,---,0.00,VWS V14.01,2013-04-23 22:40:00,
2013-04-23 18:45:00,43.3,37.6,29.59,NE,43,17.4,17.4,80,0.00,,---,0.00,VWS V14.01,2013-04-23 22:45:00,
2013-04-23 18:50:00,43.2,37.4,29.59,NNW,333,7.2,7.2,80,0.00,,---,0.00,VWS V14.01,2013-04-23 22:50:00,
2013-04-23 18:55:00,43.2,37.1,29.59,East,89,15.2,15.2,79,0.00,,---,0.00,VWS V14.01,2013-04-23 22:55:00,
2013-04-23 19:00:00,43.2,37.1,29.59,NNW,345,13.4,13.4,79,0.00,,---,0.00,VWS V14.01,2013-04-23 23:00:00,
2013-04-23 19:05:00,43.2,37.1,29.59,NNE,21,17.4,17.4,79,0.00,,---,0.00,VWS V14.01,2013-04-23 23:05:00,
2013-04-23 19:10:00,43.2,37.1,29.59,ENE,65,16.6,16.6,79,0.00,,---,0.00,VWS V14.01,2013-04-23 23:10:00,
2013-04-23 19:15:00,43.0,36.9,29.56,NNE,19,16.6,16.6,79,0.00,,---,0.00,VWS V14.01,2013-04-23 23:15:00,
2013-04-23 19:20:00,43.0,36.9,29.56,North,4,16.1,16.1,79,0.00,,---,0.00,VWS V14.01,2013-04-23 23:20:00,
2013-04-23 19:25:00,42.8,36.8,29.56,NE,38,20.1,20.1,79,0.00,,---,0.00,VWS V14.01,2013-04-23 23:25:00,
2013-04-23 19:30:00,42.8,37.1,29.56,NNE,24,17.4,17.4,80,0.00,,---,0.00,VWS V14.01,2013-04-23 23:30:00,
2013-04-23 19:35:00,42.8,37.4,29.56,NE,44,10.7,10.7,81,0.00,,---,0.00,VWS V14.01,2013-04-23 23:35:00,
2013-04-23 19:40:00,42.8,37.7,29.56,North,8,16.1,16.1,82,0.00,,---,0.00,VWS V14.01,2013-04-23 23:40:00,
2013-04-23 19:45:00,42.8,38.0,29.56,NE,49,17.4,20.1,83,0.00,,---,0.00,VWS V14.01,2013-04-23 23:45:00,
2013-04-23 19:50:00,42.6,37.8,29.56,NNE,16,11.6,11.6,83,0.00,,---,0.00,VWS V14.01,2013-04-23 23:50:00,
2013-04-23 19:55:00,42.4,37.7,29.56,North,4,9.8,9.8,83,0.00,,---,0.00,VWS V14.01,2013-04-23 23:55:00,
2013-04-23 20:00:00,42.4,38.0,29.56,North,3,8.1,13.4,84,0.00,,---,0.00,VWS V14.01,2013-04-24 00:00:00,
2013-04-23 20:05:00,42.4,38.0,29.56,NNE,25,16.6,16.6,84,0.00,,---,0.00,VWS V14.01,2013-04-24 00:05:00,
2013-04-23 20:10:00,42.4,38.0,29.53,NNE,16,16.1,25.5,84,0.00,,---,0.00,VWS V14.01,2013-04-24 00:10:00,
2013-04-23 20:15:00,42.4,38.0,29.53,NE,42,10.7,10.7,84,0.00,,---,0.00,VWS V14.01,2013-04-24 00:15:00,
2013-04-23 20:20:00,42.4,38.0,29.53,North,9,17.4,17.4,84,0.00,,---,0.00,VWS V14.01,2013-04-24 00:20:00,
2013-04-23 20:25:00,42.4,38.0,29.53,NE,40,12.5,12.5,84,0.00,,---,0.00,VWS V14.01,2013-04-24 00:25:00,
2013-04-23 20:30:00,42.4,38.3,29.53,NNE,33,8.1,8.1,85,0.00,,---,0.00,VWS V14.01,2013-04-24 00:30:00,
2013-04-23 20:35:00,42.4,38.6,29.53,ENE,61,18.3,18.3,86,0.00,,---,0.00,VWS V14.01,2013-04-24 00:35:00,
2013-04-23 20:40:00,42.4,38.6,29.53,NNE,20,16.1,16.1,86,0.00,,---,0.00,VWS V14.01,2013-04-24 00:40:00,
2013-04-23 20:45:00,42.4,38.6,29.50,ENE,61,15.2,15.2,86,0.00,,---,0.00,VWS V14.01,2013-04-24 00:45:00,
2013-04-23 20:50:00,42.4,38.3,29.50,East,95,18.3,21.0,85,0.00,,---,0.00,VWS V14.01,2013-04-24 00:50:00,
2013-04-23 20:55:00,42.6,38.4,29.50,North,353,6.3,6.3,85,0.00,,---,0.00,VWS V14.01,2013-04-24 00:55:00,
2013-04-23 21:00:00,42.6,38.4,29.53,North,0,6.3,21.9,85,0.00,,---,0.00,VWS V14.01,2013-04-24 01:00:00,
2013-04-23 21:05:00,42.6,38.4,29.53,NNE,23,18.3,18.3,85,0.00,,---,0.00,VWS V14.01,2013-04-24 01:05:00,
2013-04-23 21:10:00,42.4,38.0,29.53,NNE,27,10.7,10.7,84,0.00,,---,0.00,VWS V14.01,2013-04-24 01:10:00,
2013-04-23 21:15:00,42.6,38.1,29.53,NE,46,10.7,10.7,84,0.00,,---,0.00,VWS V14.01,2013-04-24 01:15:00,
2013-04-23 21:20:00,42.4,38.0,29.53,NW,326,15.2,15.2,84,0.00,,---,0.00,VWS V14.01,2013-04-24 01:20:00,
2013-04-23 21:25:00,42.4,38.0,29.53,North,357,17.4,17.4,84,0.00,,---,0.00,VWS V14.01,2013-04-24 01:25:00,
2013-04-23 21:30:00,42.4,38.0,29.53,North,5,7.2,12.5,84,0.00,,---,0.00,VWS V14.01,2013-04-24 01:30:00,
2013-04-23 21:35:00,42.4,38.0,29.53,NNE,31,11.6,11.6,84,0.00,,---,0.00,VWS V14.01,2013-04-24 01:35:00,
2013-04-23 21:40:00,42.4,38.0,29.53,North,349,10.7,10.7,84,0.00,,---,0.00,VWS V14.01,2013-04-24 01:40:00,
2013-04-23 21:45:00,42.4,38.0,29.53,NNW,345,12.5,12.5,84,0.00,,---,0.00,VWS V14.01,2013-04-24 01:45:00,
2013-04-23 21:50:00,42.4,37.7,29.53,NNE,25,16.6,16.6,83,0.00,,---,0.00,VWS V14.01,2013-04-24 01:50:00,
2013-04-23 21:55:00,42.3,37.5,29.53,NNE,13,10.7,10.7,83,0.00,,---,0.00,VWS V14.01,2013-04-24 01:55:00,
2013-04-23 22:00:00,42.3,37.8,29.53,North,0,11.6,11.6,84,0.00,,---,0.00,VWS V14.01,2013-04-24 02:00:00,
2013-04-23 22:05:00,42.3,37.8,29.53,NNE,12,21.0,21.0,84,0.00,,---,0.00,VWS V14.01,2013-04-24 02:05:00,
2013-04-23 22:10:00,42.3,37.8,29.53,NE,34,14.3,14.3,84,0.00,,---,0.00,VWS V14.01,2013-04-24 02:10:00,
2013-04-23 22:15:00,42.3,38.1,29.50,NNE,15,20.1,20.1,85,0.00,,---,0.00,VWS V14.01,2013-04-24 02:15:00,
2013-04-23 22:20:00,42.3,38.4,29.50,NNW,335,15.2,15.2,86,0.00,,---,0.00,VWS V14.01,2013-04-24 02:20:00,
2013-04-23 22:25:00,42.3,38.4,29.50,NE,55,10.7,10.7,86,0.00,,---,0.00,VWS V14.01,2013-04-24 02:25:00,
2013-04-23 22:30:00,42.3,38.7,29.50,North,7,15.2,15.2,87,0.00,,---,0.00,VWS V14.01,2013-04-24 02:30:00,
2013-04-23 22:35:00,42.3,38.7,29.50,ENE,67,10.7,12.5,87,0.00,,---,0.00,VWS V14.01,2013-04-24 02:35:00,
2013-04-23 22:40:00,42.3,38.7,29.50,NNW,337,12.5,16.6,87,0.00,,---,0.00,VWS V14.01,2013-04-24 02:40:00,
2013-04-23 22:45:00,42.3,38.7,29.50,NNW,340,16.6,16.6,87,0.00,,---,0.00,VWS V14.01,2013-04-24 02:45:00,
2013-04-23 22:50:00,42.1,39.1,29.50,North,353,12.5,12.5,89,0.00,,---,0.00,VWS V14.01,2013-04-24 02:50:00,
2013-04-23 22:55:00,42.1,39.1,29.50,North,357,13.4,13.4,89,0.00,,---,0.00,VWS V14.01,2013-04-24 02:55:00,
2013-04-23 23:00:00,42.1,39.4,29.50,NNE,13,20.1,20.1,90,0.00,,---,0.00,VWS V14.01,2013-04-24 03:00:00,
2013-04-23 23:05:00,41.9,39.5,29.50,NNE,33,21.0,21.0,91,0.00,,---,0.00,VWS V14.01,2013-04-24 03:05:00,
2013-04-23 23:10:00,41.9,39.5,29.50,NNE,16,17.4,17.4,91,0.00,,---,0.00,VWS V14.01,2013-04-24 03:10:00,
2013-04-23 23:15:00,41.9,39.5,29.47,NNW,333,21.0,21.0,91,0.00,,---,0.00,VWS V14.01,2013-04-24 03:15:00,
2013-04-23 23:21:00,41.9,39.5,29.47,NE,50,16.6,24.6,91,0.00,,---,0.00,VWS V14.01,2013-04-24 03:21:00,
2013-04-23 23:26:00,41.7,39.6,29.47,North,4,30.0,30.0,92,0.00,,---,0.00,VWS V14.01,2013-04-24 03:26:00,
2013-04-23 23:31:00,41.7,39.6,29.47,NE,34,11.6,16.1,92,0.00,,---,0.00,VWS V14.01,2013-04-24 03:31:00,
2013-04-23 23:36:00,41.7,39.3,29.44,North,0,10.7,10.7,91,0.00,,---,0.00,VWS V14.01,2013-04-24 03:36:00,
2013-04-23 23:41:00,41.7,39.6,29.44,NE,52,11.6,11.6,92,0.00,,---,0.00,VWS V14.01,2013-04-24 03:41:00,
2013-04-23 23:46:00,41.7,39.3,29.44,ESE,110,22.8,22.8,91,0.00,,---,0.00,VWS V14.01,2013-04-24 03:46:00,
2013-04-23 23:51:00,41.7,39.0,29.44,North,0,13.4,13.4,90,0.00,,---,0.00,VWS V14.01,2013-04-24 03:51:00,
2013-04-23 23:56:00,41.7,39.0,29.44,NNE,32,21.0,21.0,90,0.00,,---,0.00,VWS V14.01,2013-04-24 03:56:00,